Victoria, TX

11:54 AM CDT on October 14, 2019 (GMT -0500)
Victoria Regional

Weather History for KVCT - August, 2019

Change the Weather History Date:

Saturday, August 3, 2019

  Actual Average Record
Temperature  
Mean Temperature 86 °F 85 °F  
Max Temperature 95 °F 95 °F 105 °F (1998)
Min Temperature 76 °F 74 °F 67 °F (1949)
Degree Days  
Heating Degree Days 0 0  
Month to date heating degree days 0 0  
Since 1 June heating degree days 0 0  
Since 1 July heating degree days 0 0  
Cooling Degree Days 21 20  
Month to date cooling degree days 65 60  
Year to date cooling degree days 2018 1813  
Since 1 June cooling degree days 1250 1154  
Growing Degree Days 35 (Base 50)    
Moisture  
Dew Point 73 °F    
Average Humidity 69    
Maximum Humidity 88    
Minimum Humidity 49    
Precipitation  
Precipitation 0.00 in 0.08 in 2.66 in (1972)
Month to date precipitation 0.00 0.25  
Year to date precipitation 14.64 24.27  
Snow  
Snow 0.00 in 0.00 in 0.00 in (2002)
Month to date snowfall 0.0 0.0  
Since 1 June snowfall 0.0 0.0  
Since 1 July snowfall 0.0 0.0  
Snow Depth 0.00 in    
Sea Level Pressure  
Sea Level Pressure 29.92 in    
Wind  
Wind Speed 5 mph (South)    
Max Wind Speed 22 mph    
Max Gust Speed 28 mph    
Visibility 10 miles    
Events Thunderstorm    
T = Trace of Precipitation, MM = Missing Value Source: NWS Daily Summary

Daily Weather History Graph

Daily Weather History Graph

Search for Another Location

Airport or City:

Astronomy

Aug. 03, 2019 Rise Set
Actual Time 6:49 AM CDT 8:17 PM CDT
Civil Twilight 6:24 AM CDT 8:42 PM CDT
Nautical Twilight 5:53 AM CDT 9:13 PM CDT
Astronomical Twilight 5:22 AM CDT 9:45 PM CDT
Moon 9:34 AM CDT (8/3) 10:37 PM CDT (8/3)
Length of Visible Light 14h 18m
Length of Day
13h 27m
Waxing Crescent, 10% of the Moon is Illuminated
Aug 3
Waxing Crescent
Aug 7
First Quarter
Aug 15
Full
Aug 23
Last Quarter
Aug 30
New

Hourly Weather History & Observations

Time (CDT) Temp. Heat Index Dew Point Humidity Pressure Visibility Wind Dir Wind Speed Gust Speed Precip Events Conditions
12:51 AM 79.0 °F - 73.0 °F 82% 29.94 in 10.0 mi South 4.6 mph - N/A   Clear
1:51 AM 79.0 °F - 73.0 °F 82% 29.93 in 10.0 mi South 3.5 mph - N/A   Clear
2:51 AM 79.0 °F - 73.0 °F 82% 29.93 in 10.0 mi South 3.5 mph - N/A   Clear
3:51 AM 79.0 °F - 73.9 °F 84% 29.92 in 10.0 mi SSW 3.5 mph - N/A   Clear
4:51 AM 78.1 °F - 73.9 °F 87% 29.92 in 10.0 mi South 3.5 mph - N/A   Clear
5:51 AM 75.9 °F - 72.0 °F 87% 29.92 in 10.0 mi Calm Calm - N/A   Clear
6:51 AM 77.0 °F - 73.0 °F 88% 29.93 in 10.0 mi Calm Calm - N/A   Clear
7:51 AM 78.1 °F - 73.9 °F 87% 29.94 in 10.0 mi Calm Calm - N/A   Clear
8:51 AM 82.9 °F 90.2 °F 75.0 °F 77% 29.96 in 10.0 mi West 6.9 mph - N/A   Partly Cloudy
9:51 AM 84.0 °F 91.9 °F 75.0 °F 74% 29.96 in 10.0 mi WNW 6.9 mph - N/A   Scattered Clouds
10:51 AM 86.0 °F 93.8 °F 73.9 °F 67% 29.96 in 10.0 mi WSW 5.8 mph - N/A   Mostly Cloudy
11:20 AM 87.1 °F 95.4 °F 73.9 °F 65% 29.96 in 10.0 mi SW 6.9 mph - N/A   Mostly Cloudy
11:37 AM 87.1 °F 94.5 °F 73.0 °F 63% 29.96 in 10.0 mi West 4.6 mph - N/A   Mostly Cloudy
11:51 AM 88.0 °F 95.6 °F 73.0 °F 61% 29.96 in 10.0 mi Variable 3.5 mph - N/A   Mostly Cloudy
12:51 PM 90.0 °F 97.9 °F 73.0 °F 57% 29.94 in 10.0 mi Variable 5.8 mph - N/A   Partly Cloudy
1:51 PM 93.0 °F 100.7 °F 72.0 °F 50% 29.92 in 10.0 mi Calm Calm - N/A   Scattered Clouds
2:51 PM 93.0 °F 100.1 °F 71.1 °F 49% 29.90 in 10.0 mi Variable 4.6 mph - N/A   Overcast
3:08 PM 93.9 °F 100.8 °F 71.1 °F 47% 29.90 in 10.0 mi Variable 4.6 mph - N/A Thunderstorm Overcast
3:15 PM 91.9 °F 99.5 °F 72.0 °F 52% 29.91 in 10.0 mi North 11.5 mph 17.3 mph N/A Thunderstorm Thunderstorm
3:51 PM 84.0 °F 88.4 °F 70.0 °F 63% 29.90 in 10.0 mi SE 17.3 mph - N/A Thunderstorm Thunderstorm
3:58 PM 84.9 °F 90.1 °F 71.1 °F 63% 29.90 in 10.0 mi SSE 13.8 mph - N/A Thunderstorm Mostly Cloudy
4:48 PM 86.0 °F 93.4 °F 73.4 °F 66% 29.90 in 10.0 mi South 6.9 mph - N/A   Scattered Clouds
4:51 PM 87.1 °F 93.6 °F 72.0 °F 61% 29.90 in 10.0 mi South 8.1 mph - N/A   Scattered Clouds
5:51 PM 87.1 °F 94.5 °F 73.0 °F 63% 29.89 in 10.0 mi South 9.2 mph - N/A   Partly Cloudy
6:51 PM 84.9 °F 93.3 °F 75.0 °F 72% 29.87 in 10.0 mi South 9.2 mph - N/A   Clear
7:51 PM 84.0 °F 91.9 °F 75.0 °F 74% 29.88 in 10.0 mi SSE 9.2 mph - N/A   Clear
8:51 PM 82.9 °F 90.2 °F 75.0 °F 77% 29.88 in 10.0 mi South 6.9 mph - N/A   Clear
9:51 PM 81.0 °F 86.7 °F 75.0 °F 82% 29.91 in 10.0 mi South 5.8 mph - N/A   Clear
10:51 PM 80.1 °F 84.5 °F 73.9 °F 81% 29.92 in 10.0 mi SSE 3.5 mph - N/A   Clear
11:51 PM 80.1 °F 84.5 °F 73.9 °F 81% 29.93 in 10.0 mi SSE 3.5 mph - N/A   Scattered Clouds